Meriden, CT

7:25 AM EDT on August 23, 2017 (GMT -0400)
Meriden Markham Municipal

Weather History for KMMK - January, 2013

Change the Weather History Date:

Sunday, January 20, 2013

  Actual Average (KOXC) Record (KOXC)
Temperature  
Mean Temperature 41 °F -  
Max Temperature 52 °F 28 °F 55 °F (2006)
Min Temperature 28 °F 15 °F 6 °F (2000)
Degree Days  
Heating Degree Days 24    
Moisture  
Dew Point 22 °F    
Average Humidity 48    
Maximum Humidity 73    
Minimum Humidity 27    
Precipitation  
Precipitation 0.00 in - - ()
Sea Level Pressure  
Sea Level Pressure 29.80 in    
Wind  
Wind Speed 9 mph (WSW)    
Max Wind Speed 16 mph    
Max Gust Speed 29 mph    
Visibility 10 miles    
Events      
Averages and records for this station are not official NWS values.
T = Trace of Precipitation, MM = Missing Value Source: NWS Daily Summary

Daily Weather History Graph

Daily Weather History Graph

Search for Another Location

Airport or City:

Trip Planner

Search our weather history database for the weather conditions in past years. The results will help you decide how hot, cold, wet, or windy it might be!

Date:

Astronomy

Jan. 20, 2013 Rise Set
Actual Time 7:12 AM EST 4:52 PM EST
Civil Twilight 6:42 AM EST 5:22 PM EST
Nautical Twilight 6:08 AM EST 5:56 PM EST
Astronomical Twilight 5:35 AM EST 6:29 PM EST
Moon 11:52 AM EST (1/20) 1:41 AM EST (1/20)
Length of Visible Light 10h 40m
Length of Day
9h 39m
Waxing Gibbous, 66% of the Moon is Illuminated
Jan 20
Waxing Gibbous
Jan 26
Full
Feb 3
Last Quarter
Feb 10
New
Feb 17
First Quarter

Hourly Weather History & Observations

Time (EST) Temp. Windchill Dew Point Humidity Pressure Visibility Wind Dir Wind Speed Gust Speed Precip Events Conditions
12:53 AM 41.0 °F 37.1 °F 30.9 °F 67% 29.88 in 10.0 mi SSE 5.8 mph - N/A   Clear
1:53 AM 39.9 °F 34.5 °F 30.0 °F 68% 29.85 in 10.0 mi SSE 8.1 mph - N/A   Clear
2:53 AM 39.9 °F 34.5 °F 30.0 °F 68% 29.83 in 10.0 mi South 8.1 mph - N/A   Clear
3:53 AM 39.0 °F 35.7 °F 28.9 °F 67% 29.81 in 10.0 mi South 4.6 mph - N/A   Partly Cloudy
4:53 AM 37.9 °F 33.5 °F 28.9 °F 70% 29.78 in 10.0 mi SSE 5.8 mph - N/A   Clear
5:53 AM 37.0 °F 30.4 °F 28.9 °F 73% 29.74 in 10.0 mi South 9.2 mph - N/A   Clear
7:53 AM 39.0 °F 33.4 °F 28.9 °F 67% 29.71 in 10.0 mi South 8.1 mph - N/A   Clear
8:53 AM 42.1 °F 37.7 °F 28.9 °F 60% 29.72 in 10.0 mi South 6.9 mph - N/A   Clear
9:53 AM 48.0 °F - 28.0 °F 46% 29.72 in 10.0 mi SSW 11.5 mph 20.7 mph N/A   Clear
10:53 AM 51.1 °F - 28.0 °F 41% 29.68 in 10.0 mi SW 11.5 mph 19.6 mph N/A   Clear
11:53 AM 52.0 °F - 27.0 °F 38% 29.66 in 10.0 mi WSW 16.1 mph 28.8 mph N/A   Clear
12:53 PM 52.0 °F - 26.1 °F 37% 29.64 in 10.0 mi WSW 11.5 mph 18.4 mph N/A   Clear
1:53 PM 51.1 °F - 25.0 °F 36% 29.65 in 10.0 mi West 11.5 mph 20.7 mph N/A   Partly Cloudy
2:53 PM 52.0 °F - 21.9 °F 31% 29.67 in 10.0 mi West 6.9 mph 18.4 mph N/A   Clear
3:53 PM 51.1 °F - 18.0 °F 27% 29.71 in 10.0 mi WNW 11.5 mph 18.4 mph N/A   Clear
4:53 PM 46.9 °F - 14.0 °F 27% 29.76 in 10.0 mi NW 12.7 mph 20.7 mph N/A   Clear
5:53 PM 44.1 °F 36.8 °F 12.0 °F 27% 29.82 in 10.0 mi NW 16.1 mph 27.6 mph N/A   Clear
6:53 PM 37.9 °F 32.1 °F 15.1 °F 39% 29.87 in 10.0 mi NNW 8.1 mph - N/A   Clear
7:53 PM 36.0 °F 28.5 °F 14.0 °F 41% 29.91 in 10.0 mi NNW 10.4 mph 17.3 mph N/A   Clear
8:53 PM 34.0 °F 25.5 °F 12.0 °F 40% 29.94 in 10.0 mi WNW 11.5 mph 17.3 mph N/A   Clear
9:53 PM 32.0 °F 25.6 °F 10.9 °F 42% 29.98 in 10.0 mi NW 6.9 mph - N/A   Clear
10:53 PM 30.0 °F 22.4 °F 10.0 °F 43% 29.99 in 10.0 mi WNW 8.1 mph - N/A   Clear
11:53 PM 28.9 °F 20.4 °F 8.1 °F 41% 29.99 in 10.0 mi NW 9.2 mph 18.4 mph N/A   Clear